This demonstration page uses our WeatherBlox Daily Observations layout. Learn more.

Left ArrowRight Arrow

39.29038, -76.61219

Hourly Observations for January 26, 2020

Temp ( °F °C ) Dew Point ( °F °C ) Humidity (%) Winds ( mph kmh ) Pressure ( in mb ) Visibility ( mi km ) Precip ( " mm )
12:54 am 00:54 undefined 41 5 31 -0.6 67 67 undefined N/A 29.88 1012 N/A 0.00 0.00
1:54 am 01:54 undefined 40 4.4 30 -1.1 68 68 undefined N/A 29.88 1012 N/A 0.00 0.00
2:54 am 02:54 undefined 39 3.9 30 -1.1 70 70 undefined N/A 29.89 1012 N/A 0.00 0.00
3:54 am 03:54 undefined 39 3.9 30 -1.1 70 70 undefined N/A 29.89 1012 N/A 0.00 0.00
4:54 am 04:54 undefined 40 4.4 30 -1.1 68 68 undefined N/A 29.89 1012 N/A 0.00 0.00
5:54 am 05:54 undefined 40 4.4 30 -1.1 68 68 undefined N/A 29.89 1012 N/A 0.00 0.00
6:54 am 06:54 undefined 40 4.4 30 -1.1 68 68 undefined N/A 29.89 1012 N/A 0.00 0.00
7:54 am 07:54 undefined 39 3.9 30 -1.1 70 70 undefined N/A 29.89 1012 N/A 0.00 0.00
8:54 am 08:54 undefined 41 5 30 -1.1 65 65 undefined N/A 29.92 1013 N/A 0.00 0.00
9:54 am 09:54 undefined 46 7.8 30 -1.1 54 54 undefined N/A 29.94 1014 N/A 0.00 0.00
10:54 am 10:54 undefined 47 8.3 29 -1.7 50 50 undefined N/A 29.91 1013 N/A 0.00 0.00
11:54 am 11:54 undefined 47 8.3 28 -2.2 48 48 undefined N/A 29.88 1012 N/A 0.00 0.00
12:54 pm 12:54 undefined 47 8.3 27 -2.8 46 46 undefined N/A 29.85 1011 N/A 0.00 0.00
1:54 pm 13:54 undefined 49 9.4 27 -2.8 43 43 undefined N/A 29.86 1011 N/A 0.00 0.00
2:54 pm 14:54 undefined 47 8.3 27 -2.8 46 46 undefined N/A 29.83 1010 N/A 0.00 0.00
3:54 pm 15:54 undefined 46 7.8 28 -2.2 50 50 undefined N/A 29.85 1011 N/A 0.00 0.00
4:54 pm 16:54 undefined 45 7.2 28 -2.2 52 52 undefined N/A 29.85 1011 N/A 0.00 0.00
5:54 pm 17:54 undefined 45 7.2 27 -2.8 49 49 undefined N/A 29.86 1011 N/A 0.00 0.00
6:54 pm 18:54 undefined 44 6.7 27 -2.8 51 51 undefined N/A 29.88 1012 N/A 0.00 0.00
7:54 pm 19:54 undefined 44 6.7 27 -2.8 51 51 undefined N/A 29.89 1012 N/A 0.00 0.00
8:54 pm 20:54 undefined 43 6.1 26 -3.3 51 51 undefined N/A 29.88 1012 N/A 0.00 0.00
9:54 pm 21:54 undefined 42 5.6 25 -3.9 51 51 undefined N/A 29.86 1011 N/A 0.00 0.00
10:54 pm 22:54 undefined 41 5 25 -3.9 53 53 undefined N/A 29.84 1011 N/A 0.00 0.00
11:54 pm 23:54 undefined 40 4.4 26 -3.3 58 58 undefined N/A 29.83 1010 N/A 0.00 0.00

Powered by AerisWeather